Regional Weather Roundup
Issued by NWS Jackson, KY

Home | Current Version | Previous Version | Graphics & Text | Print | Product List | Glossary On
Versions: 1 2 3 4 5 6 7 8 9 10 11 12 13 14 15 16 17 18 19 20 21 22 23 24 25 26 27 28 29 30 31 32 33 34 35 36 37 38 39 40 41 42 43 44 45 46 47 48 49 50
197
ASUS43 KJKL 041610
RWRJKL

EAST KENTUCKY HOURLY WEATHER ROUNDUP
NATIONAL WEATHER SERVICE JACKSON KY
1200 PM EDT WED MAY 04 2016

NOTE: "FAIR" INDICATES FEW OR NO CLOUDS BELOW 12,000 FEET WITH
NO SIGNIFICANT WEATHER AND/OR OBSTRUCTIONS TO VISIBILITY.

* THESE REPORTS ARE NOT UNDER NWS QUALITY CONTROL AND MAY NOT
  REPORT WEATHER SUCH AS PRECIPITATION AND FOG.

KYZ079-080-083-085-087-088-110-112-115-119-120-041700
...EASTERN KENTUCKY...

CITY           SKY/WX    TMP DP  RH WIND       PRES   REMARKS
JACKSON        PTSUNNY   60  44  55 CALM      29.74F
LONDON         MOSUNNY   62  38  40 SW13G18   29.76F
SOMERSET*      MOSUNNY   59  41  51 SW7G17    29.77F
MONTICELLO*    SUNNY     63  48  58 S6G21     29.78F
WILLIAMSBURG*  MOSUNNY   59  37  44 SW6       29.77F
MIDDLESBORO*   PTSUNNY   61  42  49 W6        29.78F
HARLAN APT*    PTSUNNY   57  39  51 W8        29.78S
HAZARD APT*    PTSUNNY   61  41  48 W7G16     29.75F
BLACK MTN*       N/A     50  41  71 NW2         N/A
PIKE CO APT*   PTSUNNY   58  43  57 W3        29.75S
BIG SANDY APT* CLOUDY    59  44  58 W6        29.74F
MOREHEAD APT*  SUNNY     63  45  51 SW9G15    29.73F
$$

KYZ035-036-041-042-044-050-067-078-099-041700
...CENTRAL KENTUCKY...

CITY           SKY/WX    TMP DP  RH WIND       PRES   REMARKS
MT STERLING*   SUNNY     63  45  51 W13       29.73F
FLEMING/MASON* MOSUNNY  N/A N/A N/A W10G17    29.71F
DANVILLE*      SUNNY     64  41  42 W14G22    29.74F
RICHMOND*      SUNNY     61  43  51 SW10      29.73F
LEXINGTON      CLOUDY    60  41  49 W9        29.72F
FRANKFORT      CLOUDY    59  44  57 VRB7      29.71S
LOUISVILLE     LGT RAIN  53  49  86 SW12      29.73S FOG
LEBANON*         N/A     63  45  51 S14       29.73F
BOWLING GREEN  LGT RAIN  59  51  75 W6        29.77R
$$

KYZ091>093-OHZ055-061-077-WVZ005-015-034-035-042-041700
...SOUTHERN OHIO/WEST VIRGINIA...

CITY           SKY/WX    TMP DP  RH WIND       PRES   REMARKS
COVINGTON      LGT RAIN  52  47  83 SW6       29.70F
COLUMBUS       CLOUDY    61  44  53 SW14G21   29.65F
DAYTON         LGT RAIN  51  47  86 SW13      29.67R
WILMINGTON     CLOUDY    57  44  62 W21G28    29.67S
HUNTINGTON     PTSUNNY   62  44  51 SW10      29.70F
CHARLESTON     PTSUNNY   61  45  55 W9        29.72F
PINEVILLE*     CLOUDY    55  47  72 MISG      29.80S
BECKLEY        CLOUDY    54  43  66 VRB6      29.74F
$$

VAZ002-007-008-TNZ017-027-036-066-071-041700
...SOUTHWEST VIRGINIA/EAST TENNESSEE...

CITY           SKY/WX    TMP DP  RH WIND       PRES   REMARKS
WISE*          CLOUDY    54  36  50 W7        29.78F
BRISTOL        PTSUNNY   61  43  51 VRB7      29.77F
MORRISTOWN*    MOSUNNY   61  43  51 NW7G13    29.78F
SEVIERVILLE*   PTSUNNY   63  43  48 VRB5      29.79F
KNOXVILLE      MOSUNNY   62  40  44 SW12G17   29.79F
OAK RIDGE      SUNNY     66  41  40 W9        29.79F
CROSSVILLE     MOSUNNY   61  41  47 W13G21    29.82S
NASHVILLE      MOSUNNY   68  45  43 SW8       29.79F
$$

...KEY TO REMARKS...
VSB - VISIBILITY IN MILES
WCI - WIND CHILL INDEX
HX  - HEAT INDEX

$$




USA.gov is the U.S. government's official web portal to all federal, state and local government web resources and services.